Theta_e
316 316 316 316 317 320 320 320 319 318 318 318 318 316 316 315 314 317 319 318 319 317 317 318 317 318 318 319 319 320 319 320 321 321 324 325 326 326 327 330 330 331 332 329 331 334 334 333 333 333 328 321 319 319 319 317 318 321 323 322 317 312 310 314 322 326 326 326 325 324 324 324 324 323 323 324 325 325 322 321 321 320 320 316 312 317
317 315 316 318 319 320 320 320 319 318 318 318 317 315 315 314 315 317 319 319 319 318 316 317 318 318 319 319 319 320 319 320 321 321 322 323 324 325 325 327 328 331 331 329 331 333 333 332 330 328 324 319 319 319 317 317 317 318 322 323 318 311 310 316 325 326 324 325 323 323 323 322 322 322 323 324 324 323 316 310 310 310 310 312 312 316
316 315 317 320 319 318 318 318 318 318 319 317 316 315 314 315 315 318 320 319 319 317 317 317 318 318 320 320 320 321 320 319 320 320 321 321 322 324 324 326 329 330 330 330 332 333 333 333 326 322 322 319 318 318 317 318 318 318 321 322 317 310 310 314 320 324 324 323 322 323 322 321 323 323 323 323 322 321 315 308 309 309 311 318 321 320
314 315 318 319 318 318 318 318 318 318 318 317 316 314 314 315 315 315 318 320 319 319 317 318 318 319 320 319 319 321 320 320 320 319 320 321 322 323 323 325 327 328 329 330 332 333 333 333 326 320 321 319 318 319 318 318 318 318 320 321 315 311 312 311 313 320 321 317 317 319 318 319 321 320 318 317 317 317 314 311 311 310 314 322 323 321
315 317 318 318 317 317 318 319 319 317 316 317 318 315 315 317 316 316 318 320 320 320 319 317 316 316 318 318 318 320 320 320 320 320 322 323 324 324 324 325 326 327 328 328 330 333 334 334 328 320 319 320 319 319 318 318 318 318 319 319 315 312 311 309 310 314 313 310 309 311 310 312 314 315 316 318 318 317 316 315 311 309 314 320 322 322
315 317 317 316 317 316 317 318 319 317 315 316 318 318 317 318 318 318 319 319 318 317 319 318 314 314 316 317 318 320 320 320 321 321 322 322 322 323 323 324 325 326 328 326 326 331 334 335 332 325 320 319 321 319 318 318 318 319 319 318 316 313 311 309 309 310 308 308 308 309 310 312 314 317 320 321 320 319 319 316 311 311 313 317 320 322
315 317 316 316 317 317 317 317 319 319 315 315 318 319 318 318 318 319 318 318 315 314 318 320 316 314 315 317 319 320 320 320 320 319 319 320 319 320 320 321 323 324 325 325 326 329 332 333 333 331 325 320 321 320 318 318 318 319 319 318 317 314 312 310 309 309 308 309 309 312 315 316 317 320 321 321 321 320 318 312 309 310 311 314 317 317
317 316 316 316 317 317 317 316 318 319 316 316 319 319 318 317 317 318 318 316 315 315 318 318 317 314 313 316 319 320 320 319 320 319 319 319 319 319 319 319 320 322 323 324 326 328 330 331 333 334 331 327 324 321 319 320 319 319 320 319 318 317 313 310 310 309 309 310 313 316 318 318 318 321 320 319 320 318 314 310 311 313 313 314 315 315
317 317 316 316 316 316 316 317 318 319 317 317 320 319 318 318 318 319 318 316 317 316 315 316 317 315 314 315 317 319 319 319 319 320 320 320 319 319 319 319 320 322 323 323 325 328 329 330 331 333 333 332 329 323 320 320 319 320 320 319 319 318 314 310 310 309 308 312 317 318 319 318 320 320 319 319 318 316 312 309 312 316 316 314 313 312
317 316 316 316 316 315 316 317 317 318 318 319 319 318 318 319 319 320 318 316 317 316 315 316 316 315 314 314 316 318 318 318 319 319 320 320 320 319 321 321 321 321 322 321 323 324 325 327 330 332 332 333 332 328 324 320 320 320 320 319 319 319 316 311 309 309 308 312 318 320 319 318 319 318 318 318 318 317 314 313 313 316 316 315 312 309
316 316 316 315 315 315 316 317 317 317 318 319 318 317 317 318 319 318 318 316 315 315 315 315 315 315 315 314 315 319 319 319 320 320 320 321 320 320 321 320 320 320 320 320 321 321 323 323 325 328 332 332 332 331 329 323 320 320 321 320 319 319 318 313 309 310 309 309 316 320 319 318 319 318 318 319 318 318 317 317 316 317 318 317 313 309
316 315 314 314 314 315 315 315 316 316 316 318 317 316 316 317 317 317 317 316 315 315 314 314 315 315 314 313 314 318 319 319 319 320 321 321 321 321 320 320 319 320 320 321 321 323 324 323 322 323 328 332 332 332 332 328 322 321 321 320 320 319 318 315 310 310 310 308 313 321 320 319 319 316 317 320 319 318 319 318 318 318 318 318 314 311
315 315 315 315 315 315 314 313 314 315 315 316 316 316 316 315 316 316 316 315 315 315 315 315 316 315 314 314 316 318 318 318 319 319 320 321 321 320 319 319 320 320 320 321 322 324 326 325 324 323 325 330 332 332 333 331 326 324 323 322 320 320 319 316 311 309 310 308 310 319 321 319 318 314 314 319 319 318 319 318 318 318 318 319 317 315
314 315 315 315 315 314 314 313 313 314 314 315 315 315 315 314 316 316 315 314 314 314 315 316 316 315 313 315 318 319 318 318 318 319 319 320 320 320 319 319 320 321 322 322 323 325 327 327 326 326 327 330 331 331 331 331 329 327 326 323 320 320 319 317 314 309 309 309 309 315 320 320 318 313 311 316 318 317 318 319 319 317 318 319 317 317
312 313 314 315 315 315 314 313 314 314 314 315 315 315 314 314 315 315 314 313 313 313 314 316 316 314 313 316 318 319 319 318 317 318 318 318 318 319 319 319 320 322 323 324 325 326 327 327 327 328 329 330 329 329 329 330 330 329 328 325 322 322 321 318 316 311 308 309 308 311 317 320 320 317 313 315 318 317 317 318 319 318 317 318 317 317
311 311 313 314 315 314 314 314 315 314 313 315 316 314 314 314 315 314 313 314 314 314 314 315 315 314 316 318 319 318 318 317 317 317 317 318 318 318 319 320 321 322 324 325 325 326 327 327 327 327 327 327 327 327 329 328 329 329 328 327 325 325 325 321 319 315 310 309 309 309 314 318 320 319 317 316 318 318 316 317 319 318 317 318 318 318
311 312 313 314 314 314 314 314 315 314 312 314 314 313 314 315 315 313 313 315 315 314 314 313 313 314 316 318 317 316 316 316 316 317 317 318 319 318 319 320 321 322 324 325 325 326 327 327 327 326 326 326 326 326 327 328 328 328 328 328 327 326 327 325 322 319 315 311 310 309 310 315 318 320 320 318 318 319 318 317 318 318 317 317 317 318
313 312 313 313 314 314 315 314 314 314 314 313 312 314 314 315 315 314 314 314 315 314 314 313 313 313 313 315 316 316 316 315 315 316 317 318 318 318 319 319 320 321 323 324 325 326 327 327 326 325 325 325 325 326 327 327 327 327 327 328 327 327 328 328 326 324 321 317 314 314 312 312 315 318 320 319 319 320 320 317 317 317 317 317 317 318
315 313 313 313 313 314 315 314 313 313 314 313 313 314 314 314 313 313 314 314 315 315 314 312 313 313 312 314 316 317 316 316 316 315 317 317 318 318 318 319 319 320 321 322 324 325 325 325 325 324 325 325 325 325 326 326 326 327 327 327 327 327 327 327 327 326 324 320 318 318 317 314 313 315 318 320 320 321 321 320 318 318 318 317 317 318
316 314 313 313 313 314 314 313 312 312 313 313 313 314 313 313 313 313 313 314 315 315 315 314 314 313 314 316 316 317 317 316 316 316 317 317 318 318 318 318 318 319 319 320 321 323 324 324 324 324 323 324 324 324 324 325 325 326 326 326 326 327 326 326 326 326 325 324 321 321 319 318 316 315 316 319 320 321 321 321 319 318 319 319 318 318
314 314 313 313 313 313 313 313 312 312 313 313 314 313 313 314 313 314 314 313 313 314 314 315 314 313 316 318 317 317 318 317 316 316 316 317 317 317 318 317 317 318 318 317 318 319 320 322 323 323 323 323 323 323 323 324 324 324 325 325 325 324 323 323 324 323 323 323 323 323 322 320 319 318 317 319 320 321 321 321 321 320 319 319 319 319
312 312 313 313 312 312 312 313 314 314 314 314 314 314 314 314 314 314 315 314 313 313 313 314 314 314 317 318 316 317 318 317 316 317 317 317 317 317 317 317 317 317 317 317 316 316 317 317 318 320 321 321 322 323 323 323 323 323 323 323 323 321 321 321 322 321 320 321 322 323 323 322 322 321 320 320 320 321 321 321 321 320 319 319 320 319
312 312 312 311 312 311 312 313 313 313 314 313 314 314 314 314 314 313 314 315 314 313 313 313 313 316 318 318 316 318 318 317 317 317 317 317 316 316 316 316 316 316 316 316 315 315 315 315 315 316 317 318 319 320 321 322 322 322 323 323 322 322 322 322 323 322 321 321 322 321 320 319 319 321 322 321 321 321 321 321 321 320 320 320 320 320
312 311 310 309 309 310 311 312 312 313 312 312 313 313 313 313 313 313 313 314 315 314 314 313 313 316 318 318 317 319 317 316 316 316 316 316 316 315 316 315 315 315 315 315 315 314 314 314 313 314 314 314 315 316 316 317 319 320 320 321 322 323 323 324 324 324 322 320 320 319 319 318 317 321 323 322 321 321 320 320 322 321 321 320 320 320
312 311 310 309 310 310 310 310 311 311 311 311 312 312 312 313 313 314 314 314 315 314 313 313 312 314 317 317 317 316 316 315 316 315 315 315 315 315 315 315 315 315 315 315 315 314 314 313 313 313 313 313 313 313 314 314 314 315 315 316 317 318 320 321 323 324 323 321 321 320 320 320 318 320 322 322 321 320 319 321 323 323 322 322 321 321
311 311 310 310 310 311 310 310 310 311 311 312 312 312 312 313 313 314 313 313 314 313 313 312 311 313 316 316 315 315 315 315 315 315 315 315 314 314 314 315 315 315 315 315 315 315 314 313 313 312 312 312 312 312 312 312 312 313 313 313 313 313 314 316 317 319 321 321 322 322 322 322 321 321 322 322 321 321 320 321 322 323 323 323 322 322
311 311 310 310 310 311 310 310 310 311 311 311 312 312 312 312 313 313 312 312 313 312 312 312 312 313 314 314 314 314 315 314 314 315 314 314 314 314 314 314 314 314 315 315 315 315 315 314 313 313 312 311 311 311 310 310 311 311 311 311 312 312 311 311 312 314 316 317 318 319 320 321 322 324 324 323 322 322 322 323 322 323 323 324 323 323
310 310 311 311 311 311 310 311 310 311 311 310 311 311 312 312 312 313 312 312 313 312 311 312 312 313 313 313 313 313 314 314 314 314 314 313 313 314 314 313 313 313 314 314 315 315 315 315 314 313 312 311 310 310 309 310 310 310 310 310 310 310 309 308 310 312 313 313 313 315 315 316 318 320 320 321 321 321 321 321 322 323 322 322 323 324
310 310 311 311 311 310 310 310 310 310 310 310 310 311 312 311 312 313 312 312 313 312 312 312 312 312 313 312 312 313 313 313 313 313 313 313 313 313 313 313 312 312 313 314 314 315 314 314 313 312 311 310 310 310 309 309 309 309 310 309 309 310 309 308 308 309 310 311 312 313 313 312 313 314 314 315 317 318 318 317 320 322 322 323 323 323
310 310 311 311 310 310 310 310 310 310 310 310 310 311 311 311 311 312 312 312 312 312 312 312 313 313 313 312 312 312 313 313 312 312 312 312 312 312 312 313 312 312 313 313 313 313 313 312 313 312 311 310 310 310 310 309 308 309 309 309 308 309 309 309 308 308 309 309 310 311 311 311 313 312 313 314 316 317 319 318 319 320 320 321 323 324
310 310 311 310 309 310 310 309 309 309 310 310 310 310 310 311 311 311 311 312 312 312 312 312 312 312 313 312 312 312 312 311 312 312 312 312 312 312 312 312 312 312 313 313 312 312 312 312 312 311 311 311 310 309 309 308 308 308 308 308 307 308 308 308 308 308 309 309 310 310 310 310 311 312 313 313 314 314 316 317 319 319 317 315 316 320
309 310 310 309 309 309 309 309 309 309 309 309 310 310 310 310 310 310 311 311 311 311 311 311 311 311 311 311 311 312 311 312 312 312 311 311 311 311 311 311 311 312 312 312 311 311 311 311 311 311 310 310 309 309 308 308 307 308 307 307 306 307 307 308 308 308 309 309 309 309 309 310 310 311 311 312 313 313 314 315 317 318 318 316 314 315
309 309 309 309 309 309 309 309 309 308 308 308 309 310 309 309 309 309 310 310 311 311 310 310 310 310 310 311 311 311 311 312 312 311 311 311 311 311 311 311 311 311 311 311 310 310 310 310 311 310 310 309 309 308 307 307 307 308 307 307 307 307 307 307 308 308 309 309 309 309 309 309 310 310 310 310 311 312 313 314 314 316 317 318 318 317
309 308 308 308 308 308 309 309 308 307 307 308 309 309 309 309 309 309 309 309 310 310 310 310 310 310 311 310 310 310 310 311 311 311 311 311 311 310 311 311 311 310 310 310 310 310 310 310 310 310 310 309 309 308 307 307 308 308 307 307 307 307 307 306 307 307 308 309 309 309 309 309 309 310 310 310 310 311 312 313 314 315 315 316 317 318
308 307 308 307 307 308 308 307 307 307 307 309 309 309 309 309 308 308 309 309 309 310 310 310 310 310 310 310 310 310 310 309 310 310 310 310 310 310 310 310 310 310 310 309 310 309 309 309 309 309 309 308 307 307 307 307 308 307 307 307 307 306 306 307 307 307 308 308 308 309 309 310 310 310 310 310 311 311 311 312 313 314 315 316 316 316
307 307 307 307 306 307 306 306 307 308 308 309 308 308 307 307 307 307 307 307 308 309 309 308 308 308 309 310 310 309 309 309 309 309 309 309 310 310 310 310 309 309 309 308 308 308 308 308 308 308 309 308 307 307 307 307 307 307 307 307 307 307 307 307 307 307 308 308 308 309 309 309 310 310 310 311 311 311 311 312 313 314 315 315 315 315
307 306 306 306 306 306 306 306 307 307 307 307 307 308 308 308 307 307 307 307 308 309 308 308 307 308 308 309 308 308 309 309 309 308 308 309 310 310 309 309 308 307 307 307 307 307 307 307 308 308 308 308 308 307 307 307 307 307 307 307 307 307 307 307 307 307 308 308 308 308 309 309 310 310 311 311 311 311 311 312 313 314 314 315 315 315
307 306 306 306 306 306 305 305 306 306 306 307 308 308 308 308 308 308 307 307 307 308 307 307 307 307 308 308 307 308 308 308 308 308 308 308 309 308 308 307 307 307 306 306 306 306 306 307 307 306 306 306 307 307 307 307 307 307 307 307 307 306 306 306 307 307 307 307 308 308 308 309 310 310 311 311 311 311 312 312 313 314 314 314 314 314
306 306 305 305 305 305 305 305 305 305 306 307 308 307 307 307 307 307 306 305 305 306 306 306 306 307 307 307 307 307 307 307 307 308 307 307 307 306 306 306 306 306 305 305 305 305 305 305 305 304 305 306 307 307 307 306 306 306 306 306 306 306 307 307 307 307 308 308 308 308 309 309 310 310 311 311 311 311 311 312 313 313 313 313 313 314
305 305 304 304 304 305 305 305 305 305 306 306 306 306 306 306 306 306 305 304 304 305 305 304 305 306 306 306 306 306 305 306 306 307 306 306 306 305 305 305 305 305 305 304 304 304 304 303 303 304 305 306 306 306 306 306 306 306 307 307 307 307 307 307 307 307 308 308 308 309 309 310 310 311 311 311 311 311 311 311 312 312 313 313 312 312
304 304 304 304 304 304 304 304 304 305 305 306 306 305 305 305 305 304 303 303 304 305 304 304 304 304 304 304 305 305 305 305 305 305 304 305 305 305 304 304 304 304 303 303 303 303 303 303 303 304 304 304 305 305 306 306 306 306 306 307 306 307 307 307 307 307 308 308 309 309 309 310 310 310 311 311 311 311 311 311 311 311 312 312 311 310
304 304 304 303 304 303 303 303 303 304 305 305 305 304 305 305 303 303 303 303 303 304 304 304 303 303 303 303 304 304 304 304 304 304 304 304 304 304 304 304 303 303 303 303 302 302 302 303 303 304 304 304 304 305 305 305 305 306 306 306 306 306 307 307 307 307 308 308 308 308 308 309 309 309 310 310 310 310 310 310 311 311 311 310 310 310
303 303 303 303 303 303 302 302 303 303 303 304 303 303 303 303 303 302 302 303 303 303 303 303 303 303 302 303 303 303 303 303 303 303 303 303 303 303 303 303 303 303 303 302 302 302 302 302 302 303 303 303 304 304 304 305 305 305 306 306 306 306 306 307 307 307 307 308 308 308 308 308 308 308 309 309 308 309 309 310 311 310 310 309 309 309
302 302 302 302 302 302 302 302 302 302 302 303 302 302 302 302 302 302 302 302 302 302 302 302 302 302 302 302 302 302 302 302 302 302 302 302 302 302 302 302 302 302 302 302 302 302 302 301 302 302 302 303 303 304 304 304 305 305 305 306 306 306 306 307 307 307 307 307 307 307 307 307 307 307 308 308 308 309 310 310 309 309 309 308 308 307
301 302 301 301 301 301 301 302 302 302 302 302 301 301 301 301 301 301 301 301 301 301 301 301 301 301 301 301 301 301 301 302 301 301 301 301 302 302 301 301 301 301 302 301 301 302 302 302 302 302 302 303 303 304 304 304 304 305 305 305 306 306 306 306 306 307 306 306 306 306 306 306 307 307 307 308 308 309 309 309 308 308 308 308 307 306
301 301 301 300 300 301 301 301 302 301 301 301 300 300 300 300 300 300 300 300 300 300 300 300 300 300 300 300 300 300 300 301 301 300 301 301 301 301 301 301 301 301 301 301 301 301 302 302 302 302 302 302 303 303 304 304 304 304 305 305 306 306 306 306 307 306 306 306 306 305 306 305 306 306 307 307 308 308 308 307 307 307 307 306 305 305
301 301 300 300 299 299 299 300 301 300 300 300 300 299 299 299 299 299 299 299 299 299 299 299 299 299 299 299 299 299 299 300 300 300 300 300 300 300 300 300 301 301 301 301 301 301 302 302 302 302 302 302 302 303 303 304 304 304 305 305 306 306 306 306 306 306 305 305 305 305 305 305 305 305 306 306 306 307 306 305 306 305 303 302 302 302
300 299 299 299 299 299 299 300 300 300 299 299 299 299 299 299 299 299 299 299 299 298 299 299 299 299 299 299 299 299 299 299 299 299 299 300 300 300 300 300 300 300 300 300 300 301 301 301 302 302 302 302 302 303 303 303 304 304 305 305 306 306 306 306 305 304 304 304 304 304 304 304 304 304 304 304 305 305 304 303 303 302 300 299 299 299
299 298 298 298 298 298 299 299 299 298 299 299 299 298 298 298 298 298 298 298 298 298 298 298 298 298 298 298 298 298 299 299 299 299 299 299 299 299 299 300 300 300 300 300 300 300 301 301 301 302 302 302 302 303 303 303 304 304 305 305 306 306 305 305 304 304 304 304 303 303 303 303 303 303 303 303 303 302 301 300 300 299 298 298 298 297
298 298 298 298 297 297 298 298 298 298 298 298 298 298 298 298 298 298 298 297 297 297 297 298 298 298 298 298 298 298 298 298 298 299 299 299 299 299 299 299 299 299 300 300 300 300 301 301 302 302 302 303 303 303 303 304 304 304 305 305 305 304 304 303 303 303 303 302 302 302 302 301 301 301 301 301 300 299 298 297 297 296 296 296 296 296
298 298 298 297 297 297 298 298 298 297 297 297 297 297 297 297 297 297 297 297 298 298 298 299 299 299 299 299 299 299 299 299 298 299 299 299 299 299 299 299 300 300 300 301 301 301 302 302 302 302 303 302 303 303 304 304 303 304 305 305 304 303 303 302 302 301 301 301 300 300 300 300 300 299 299 298 297 297 297 296 296 296 296 296 296 296
Wind_Speed
6 5 7 7 2 2 3 5 7 8 9 9 6 5 6 6 7 6 8 6 3 5 9 10 7 10 8 5 6 6 8 10 10 10 10 11 12 14 15 17 18 16 16 17 18 20 20 19 21 20 20 21 20 19 17 16 15 13 11 9 7 5 3 3 6 6 5 5 4 4 4 3 3 3 3 4 4 3 3 3 1 1 2 6 7 4
4 6 9 5 4 6 5 6 6 7 8 7 8 7 7 7 6 2 5 5 2 4 9 9 6 9 9 8 6 6 9 11 12 12 12 13 13 14 14 15 18 17 17 18 19 20 20 20 22 22 21 22 21 20 19 17 16 14 12 10 8 6 4 6 8 7 6 5 4 4 4 4 4 4 4 3 3 2 1 1 1 1 2 2 3 3
7 10 9 3 4 3 3 4 5 7 8 7 8 8 7 7 6 2 5 3 3 4 9 8 7 9 11 10 8 8 9 10 13 14 14 14 14 14 14 14 17 17 16 19 20 21 21 21 23 23 22 22 21 21 20 18 17 15 13 12 10 7 5 7 9 9 7 7 7 6 6 5 4 5 6 4 3 2 1 2 2 1 2 4 3 1
5 4 2 6 3 3 4 5 7 7 8 8 8 8 7 7 8 2 4 5 4 4 9 9 6 6 9 10 8 10 11 10 11 13 14 14 14 14 14 14 15 16 17 19 20 22 21 21 23 25 24 23 22 22 21 20 19 17 15 13 11 8 7 8 10 10 9 9 10 9 8 8 6 6 6 4 4 3 3 4 4 3 5 6 4 3
5 5 7 5 2 5 7 7 8 8 7 9 9 8 8 7 8 5 2 3 4 6 8 9 7 7 10 13 11 10 11 9 9 12 13 14 13 11 10 10 12 15 17 16 17 19 20 20 23 25 25 24 24 24 23 22 21 19 17 15 12 10 9 9 10 10 9 8 9 9 9 8 7 6 6 5 4 4 4 4 4 4 6 6 5 5
4 6 5 3 3 7 9 8 9 8 7 8 9 9 10 9 7 7 5 4 6 7 7 7 8 7 9 13 11 8 9 9 10 12 14 15 15 13 12 10 9 11 13 14 17 17 18 20 21 24 26 26 26 25 24 24 23 21 19 16 13 11 11 11 10 10 9 9 9 9 9 8 8 7 7 6 6 5 4 3 4 5 5 5 5 5
2 4 2 4 5 9 9 9 9 8 8 6 4 7 9 10 9 9 9 7 7 6 5 6 8 7 6 7 7 6 9 11 10 10 12 15 15 14 14 13 12 11 11 14 17 16 15 17 19 21 25 28 27 26 25 25 24 22 19 17 14 13 12 12 12 11 10 10 10 10 10 9 9 8 7 7 7 6 5 5 5 5 5 5 5 5
4 4 3 4 7 9 8 9 7 7 8 4 2 4 8 10 9 8 9 8 8 7 4 8 9 8 6 5 5 5 8 10 10 9 9 11 12 12 11 11 11 10 10 13 13 13 14 15 17 19 21 24 26 27 26 26 26 23 21 19 16 15 14 13 13 12 11 11 12 12 11 10 9 8 8 8 7 7 6 6 6 5 5 5 5 5
2 4 5 8 9 8 7 7 4 6 8 2 2 6 7 8 8 7 9 8 7 7 6 9 9 7 8 5 5 7 9 10 10 9 8 8 9 9 7 7 6 5 7 10 10 9 11 13 15 16 18 19 22 26 28 28 27 25 23 21 19 17 16 15 14 13 12 13 13 13 12 11 10 10 9 9 7 7 6 6 6 6 5 5 5 5
3 4 5 8 8 7 6 4 2 6 8 3 3 7 8 7 8 8 8 7 6 7 8 9 8 7 7 5 5 8 9 10 8 8 7 7 7 6 5 4 4 4 5 6 6 6 7 10 12 14 16 18 20 24 28 30 29 27 25 24 21 19 18 17 16 15 14 14 14 13 13 13 12 11 10 9 8 7 6 6 6 6 5 4 4 5
4 4 4 6 9 9 5 3 3 6 7 5 6 9 8 7 8 7 7 7 7 8 10 12 10 7 6 6 5 4 2 5 4 7 6 6 5 4 2 3 4 3 2 2 3 3 4 7 9 12 15 18 19 22 25 30 31 30 28 26 24 21 19 18 17 17 16 16 16 14 14 15 14 13 12 11 10 8 7 6 6 5 5 4 3 4
6 7 6 7 9 9 7 6 7 7 7 7 7 7 6 6 7 6 6 6 7 8 8 9 8 7 7 6 2 5 3 2 2 5 5 3 2 2 1 1 1 0 1 1 1 1 1 3 7 11 15 18 20 21 23 28 32 31 30 28 26 24 21 19 19 19 18 18 17 15 15 16 15 15 14 12 11 10 9 8 7 6 6 5 3 2
7 8 8 7 7 8 9 7 7 8 8 8 8 7 7 6 5 6 7 6 7 7 3 2 4 6 7 5 2 6 6 3 1 1 3 3 2 2 1 1 2 3 2 2 3 3 2 2 3 8 13 16 19 21 21 24 28 30 30 29 28 26 23 21 20 20 20 20 19 17 16 16 16 16 15 13 12 11 10 8 8 7 6 6 5 4
6 9 10 8 7 7 9 7 5 6 6 8 8 6 6 6 5 8 7 6 7 6 2 1 0 4 7 3 4 6 5 6 5 4 5 4 3 3 2 3 5 6 6 6 6 6 5 4 2 3 9 13 16 19 18 19 23 26 27 29 28 26 24 22 21 21 21 21 20 19 17 16 16 16 15 14 12 12 10 9 9 8 7 7 6 5
7 6 7 6 3 5 9 9 6 6 5 7 8 7 7 6 6 7 6 6 6 4 3 2 1 5 5 1 4 6 6 7 8 8 7 5 5 5 5 6 7 9 9 8 8 8 7 6 4 2 5 9 13 16 17 17 19 21 23 26 27 25 25 23 22 21 22 22 21 20 19 17 16 15 16 14 13 13 12 10 10 9 8 8 7 7
9 6 5 5 3 4 8 7 5 8 7 6 7 8 7 6 6 6 6 6 4 5 4 5 4 4 1 5 5 6 8 9 9 9 8 7 7 7 8 8 9 10 10 9 10 9 8 8 6 4 3 6 9 12 13 15 16 17 18 21 23 22 22 23 22 21 22 22 22 22 21 19 17 16 16 14 13 14 13 12 11 11 10 9 8 8
7 5 5 6 7 7 7 5 4 7 5 3 6 7 6 6 6 7 7 5 3 6 7 5 7 5 3 6 8 7 7 9 9 9 9 9 9 9 9 10 10 11 12 11 10 10 9 9 8 6 4 4 6 8 10 12 13 14 15 17 20 20 18 20 21 20 20 21 22 22 22 21 19 17 16 15 14 14 14 14 13 12 11 11 10 10
5 6 4 7 9 6 4 7 8 9 8 6 5 4 5 7 6 5 6 5 6 8 7 7 9 8 5 4 7 10 9 8 9 8 9 9 9 10 10 11 11 12 12 12 12 11 11 10 9 7 5 5 6 7 8 9 10 12 13 13 16 18 17 16 17 17 18 19 20 21 22 23 22 20 17 15 15 15 15 15 14 13 13 13 12 12
2 7 7 9 9 5 5 8 10 10 11 10 8 5 4 6 5 5 5 6 7 8 6 7 9 7 6 4 7 10 10 9 8 8 9 8 9 11 11 12 12 12 12 12 13 12 11 11 10 8 7 6 7 8 8 8 8 9 10 10 12 15 15 14 14 15 16 17 18 19 20 22 22 22 20 17 16 15 15 15 15 14 14 15 14 14
2 6 7 6 6 4 4 7 8 8 10 10 9 8 6 6 6 5 5 5 6 7 6 7 8 5 4 2 5 7 8 10 10 8 8 8 9 10 10 12 12 12 12 13 13 13 12 12 10 10 9 7 8 9 9 10 9 8 8 8 10 11 12 12 11 12 13 14 16 17 18 21 21 21 21 19 18 17 17 17 16 16 16 16 16 16
3 6 6 6 6 5 6 7 7 7 6 6 7 7 7 6 6 6 6 7 7 8 6 7 8 4 1 2 3 4 7 9 9 8 8 9 10 10 11 12 12 12 12 12 13 13 13 13 12 11 10 8 8 9 9 10 11 10 8 8 11 13 12 13 13 14 13 12 14 15 16 18 19 20 20 20 19 19 18 18 18 18 17 17 17 17
4 5 6 8 7 7 7 4 4 7 6 6 5 5 6 6 6 7 7 7 7 8 7 7 8 3 2 1 1 3 6 8 9 9 9 10 11 11 11 12 12 12 12 12 13 12 13 13 13 13 12 11 10 9 8 9 9 9 8 7 10 12 11 10 11 14 14 12 11 13 14 15 16 17 19 19 19 20 19 19 18 18 18 17 17 17
2 4 6 8 8 11 10 3 1 5 8 10 9 7 7 7 7 7 8 7 6 8 8 7 8 3 2 1 3 3 5 6 8 10 11 10 11 11 11 12 12 11 11 11 11 11 11 12 13 13 14 14 13 12 10 10 10 10 8 5 5 7 9 9 7 8 11 12 11 14 17 18 16 16 18 19 19 19 20 20 20 20 19 18 18 18
3 4 7 8 8 11 14 10 7 5 7 10 10 9 10 10 9 9 9 7 7 8 8 7 7 3 2 2 1 3 5 5 6 9 10 10 10 11 11 12 11 10 10 10 10 10 10 10 10 11 12 13 13 13 13 12 13 13 12 9 6 5 6 8 8 6 7 10 13 17 18 17 17 18 20 20 20 20 20 21 22 21 21 20 20 19
1 5 6 7 8 7 10 11 9 7 7 7 8 11 11 10 10 10 9 8 8 11 11 9 9 3 3 1 1 4 5 6 8 10 11 11 10 10 10 10 9 9 9 9 9 9 9 9 9 9 10 11 11 12 12 13 13 13 13 12 10 8 6 5 5 4 4 7 11 14 16 14 15 19 21 20 19 19 19 21 22 20 19 20 21 21
3 6 5 6 8 7 7 7 5 4 5 5 8 12 10 7 10 10 8 8 9 11 12 11 9 2 5 5 5 5 7 8 9 11 11 11 10 10 9 8 8 8 8 8 8 8 8 8 8 8 9 9 9 10 10 11 11 11 11 11 10 9 8 7 5 4 2 4 6 8 11 12 12 15 19 20 19 18 18 20 21 19 18 19 19 21
5 6 8 10 10 9 11 10 8 8 7 7 10 11 9 8 10 9 8 9 9 10 11 11 11 8 6 7 6 6 7 8 8 9 10 9 9 8 7 7 6 6 6 7 7 8 8 9 8 9 8 8 8 8 8 9 8 9 9 9 9 7 6 6 6 5 3 0 2 3 5 7 7 9 13 15 16 16 17 20 20 20 19 18 18 19
6 7 10 13 14 14 15 16 16 14 13 13 13 14 14 13 13 10 9 10 11 10 11 11 12 12 9 7 6 6 7 7 7 7 9 8 7 6 6 5 4 5 5 5 6 7 8 8 8 8 8 7 7 7 7 7 7 7 7 7 7 6 5 4 4 3 1 1 2 2 3 4 5 7 9 11 13 15 16 18 20 21 22 21 20 19
6 8 10 13 15 15 16 17 17 16 16 16 16 16 17 17 17 15 14 14 13 11 12 13 14 13 11 9 8 5 4 7 9 9 10 9 8 7 7 6 6 6 7 6 6 7 7 7 8 7 7 6 6 6 6 6 6 6 6 6 6 5 5 4 3 2 2 2 3 4 5 5 6 7 8 9 11 12 13 13 14 17 20 21 20 20
5 7 9 12 13 15 16 16 16 16 16 17 17 18 18 18 19 18 18 18 17 16 16 17 18 17 13 10 12 10 6 7 9 10 12 12 12 12 11 10 9 8 8 8 7 7 7 7 7 6 6 5 5 5 4 4 5 4 4 4 4 4 4 3 3 2 3 3 4 5 6 6 7 7 8 8 9 11 12 12 12 13 15 17 17 19
3 5 7 8 10 13 14 15 16 17 18 18 18 19 19 18 18 18 18 17 17 17 18 17 17 15 11 11 14 15 15 14 11 11 13 14 14 13 12 11 10 8 8 8 7 6 7 7 6 6 5 5 4 4 3 3 3 3 3 3 3 3 3 3 4 4 4 4 5 6 6 7 7 7 8 9 10 11 11 12 12 13 15 15 15 18
4 6 8 8 9 10 11 15 15 13 15 19 18 17 18 18 16 15 15 14 14 14 15 15 13 10 9 10 13 16 17 17 17 17 16 15 15 15 14 13 12 10 10 9 8 6 6 6 6 5 4 4 3 3 3 3 2 2 3 4 4 4 4 5 5 5 5 5 6 7 7 8 8 8 9 9 10 11 11 12 12 13 15 16 16 17
6 7 7 7 9 9 11 15 11 7 9 13 11 11 16 18 17 16 15 15 15 14 12 11 10 10 10 8 9 12 12 13 15 14 13 14 14 14 14 15 14 12 11 10 8 7 5 4 4 4 3 2 2 1 2 2 2 2 3 4 4 5 5 6 6 6 6 7 7 7 8 9 9 9 9 10 10 11 11 12 13 13 14 15 16 16
8 8 7 7 8 9 11 10 6 5 10 9 4 5 10 14 15 16 15 15 15 13 11 11 10 10 10 8 9 12 13 13 12 11 10 12 12 12 13 13 11 9 10 9 8 6 5 3 2 2 2 1 1 2 3 3 3 3 4 4 5 6 7 7 8 8 8 8 8 8 9 9 10 10 10 10 11 11 12 13 13 14 14 15 16 17
8 8 8 7 7 10 10 6 5 10 10 5 2 2 4 6 9 11 12 12 12 10 11 12 10 10 11 11 12 15 16 14 13 11 11 13 13 14 15 13 10 9 9 8 7 6 5 3 1 1 0 1 3 4 4 3 4 5 5 6 7 7 8 8 9 9 9 10 10 10 10 10 11 11 11 11 11 12 12 13 13 14 14 14 15 16
9 8 8 8 8 9 9 8 10 10 6 5 5 3 1 5 8 8 10 11 8 6 7 9 9 8 8 9 11 13 13 12 10 9 8 8 8 8 8 8 8 8 7 7 7 6 6 4 2 1 2 3 4 4 4 5 6 6 7 8 8 8 9 9 10 10 10 10 11 11 11 11 12 12 12 12 12 12 13 13 13 14 14 15 15 15
10 9 8 8 8 8 9 10 10 10 10 9 7 2 0 3 5 6 9 8 4 4 5 7 8 8 7 8 9 9 9 10 9 7 4 3 2 1 4 4 4 4 6 6 6 7 7 5 3 2 3 4 5 5 6 6 6 7 8 9 9 10 10 10 10 11 11 11 11 11 11 12 12 13 13 13 13 13 13 13 13 14 13 14 15 14
10 10 9 8 8 7 9 10 9 10 11 6 1 4 6 4 3 4 7 5 1 3 6 6 8 8 7 8 10 8 7 8 7 4 3 3 2 3 3 3 3 5 7 7 7 8 8 5 4 4 6 6 7 7 7 7 7 8 9 10 10 11 11 12 12 12 12 13 12 12 13 13 13 13 13 13 13 13 13 13 13 13 13 14 14 13
12 10 9 9 8 8 9 9 8 9 7 1 4 4 4 4 3 3 6 4 3 5 6 6 7 7 6 7 9 8 7 6 4 4 5 1 3 2 4 6 6 7 8 8 9 9 8 6 7 8 8 8 8 8 8 9 9 10 10 11 11 12 13 13 13 13 14 14 13 14 14 13 14 14 14 15 15 14 14 14 14 13 13 14 15 15
10 8 8 9 9 9 10 9 8 7 3 3 2 1 2 3 3 4 7 2 4 6 7 7 8 8 8 9 10 7 6 4 1 4 7 6 3 4 6 7 8 9 10 10 10 9 9 9 9 9 9 9 10 10 10 10 11 11 11 12 12 13 14 14 15 15 15 15 15 15 15 14 15 15 15 15 15 15 15 14 14 15 14 14 16 19
7 7 7 9 9 10 10 9 8 5 2 5 2 1 3 3 4 6 5 2 2 3 5 6 8 10 10 11 11 9 8 7 5 4 7 8 9 9 9 9 10 11 11 11 11 10 11 11 11 11 11 11 12 11 11 12 12 12 12 12 13 14 14 15 16 16 16 16 16 16 15 15 15 16 16 16 16 16 16 15 15 15 14 15 16 19
6 5 7 8 9 9 8 8 9 5 2 5 4 2 2 3 5 3 4 4 5 8 8 9 11 11 11 12 13 12 12 11 10 10 11 11 12 12 12 13 14 14 14 12 12 11 12 12 12 12 12 12 12 12 12 13 13 14 13 14 15 15 15 16 16 16 17 17 17 17 17 17 17 17 17 17 17 17 17 16 17 16 16 18 19 20
4 5 7 8 7 8 8 8 9 5 2 6 6 3 1 3 5 7 8 9 10 10 11 13 13 13 13 14 15 15 15 14 14 14 15 16 16 16 16 16 16 17 16 15 14 13 14 14 14 14 14 14 13 13 13 14 15 15 15 16 16 16 16 17 17 17 18 17 17 18 18 18 18 18 18 18 18 18 17 16 18 19 19 21 22 22
4 5 7 5 4 5 7 6 3 1 0 4 6 5 5 6 9 12 13 13 13 13 14 15 15 14 14 15 17 18 18 17 17 17 17 18 19 19 19 19 19 19 18 17 16 16 16 16 17 16 16 15 15 15 14 15 16 16 16 17 17 17 17 18 18 18 18 17 18 18 18 19 19 18 19 18 18 17 17 16 19 21 22 22 22 20
2 2 5 5 4 6 8 7 5 6 9 10 10 10 11 11 12 14 16 17 17 17 16 16 17 17 16 17 19 20 20 21 21 20 21 21 21 22 22 21 20 20 20 19 19 18 17 18 17 17 17 16 15 16 16 16 17 18 18 18 18 18 18 19 19 19 18 18 19 18 19 19 19 19 19 18 16 16 17 19 21 22 23 21 20 21
4 5 7 6 6 9 11 12 13 14 14 13 12 13 14 15 16 17 18 19 19 18 18 18 19 19 19 20 21 22 22 23 23 24 24 24 24 25 25 24 23 23 23 22 20 19 19 19 18 18 18 18 17 17 17 17 18 19 19 19 18 19 19 19 19 19 19 19 19 20 20 20 20 19 18 16 15 15 17 20 22 22 20 21 23 24
4 6 7 8 8 8 8 9 10 12 12 14 16 16 16 17 17 17 18 18 18 18 19 19 20 21 21 22 23 24 25 25 25 26 26 25 26 26 26 26 26 25 24 23 21 20 19 19 19 20 20 20 19 18 18 18 19 19 19 18 18 19 19 19 20 20 21 20 21 21 20 19 20 19 16 16 19 18 17 20 22 20 20 24 25 24
3 4 4 8 9 9 9 11 14 16 16 16 16 16 16 17 17 17 17 18 19 20 21 21 22 23 24 24 25 26 27 26 26 26 26 26 26 26 26 26 26 25 25 23 22 21 20 20 21 20 21 21 20 19 19 19 19 18 18 18 17 17 18 19 20 21 21 22 21 19 17 18 20 19 16 17 20 19 17 17 20 22 24 24 25 25
6 4 6 8 8 9 10 11 12 13 13 14 15 16 17 18 19 20 21 22 22 23 24 24 25 25 26 26 26 27 29 29 28 28 28 27 27 26 26 26 25 25 24 24 22 22 22 22 22 22 21 21 20 19 19 19 18 18 18 17 16 15 17 19 19 19 20 19 18 17 17 19 20 18 16 16 17 20 21 21 23 24 23 21 23 26
8 7 6 7 7 8 8 10 10 10 10 13 17 19 20 21 22 23 24 24 25 25 25 25 26 25 25 25 25 26 28 29 28 28 29 28 27 26 25 25 25 24 24 23 23 23 22 22 22 21 21 20 19 18 18 18 18 17 16 15 14 14 16 17 17 17 15 14 14 16 16 15 14 14 17 21 25 27 27 25 24 23 22 23 24 26
6 6 6 6 7 9 11 14 15 14 14 17 20 22 23 24 25 25 25 24 23 23 22 23 23 23 22 22 23 23 25 27 27 28 29 29 28 27 26 25 25 24 23 23 22 22 21 21 20 20 20 20 19 18 18 18 17 15 13 12 12 13 13 13 13 13 12 12 13 12 10 10 15 20 24 26 27 29 29 28 26 24 23 23 24 24
Wind_Direction
233 238 232 237 251 15 8 341 344 341 328 318 300 279 273 249 224 204 122 111 259 261 250 230 224 258 244 213 235 212 204 218 220 212 214 217 207 208 203 174 171 186 181 182 192 182 172 171 168 171 177 179 179 179 179 180 181 182 181 188 194 197 198 144 134 140 146 147 143 139 133 133 126 124 126 121 122 130 151 152 162 187 213 246 246 248
231 251 242 241 29 28 3 342 328 309 298 282 272 264 253 250 246 220 109 120 201 251 258 244 230 260 254 225 221 222 222 222 219 216 214 217 215 211 209 191 179 178 176 183 194 187 176 175 177 177 180 183 182 182 183 184 188 188 185 189 197 203 188 153 152 156 156 152 147 144 141 137 129 121 117 125 137 147 218 226 234 244 234 253 269 257
218 244 238 155 52 0 325 308 282 272 272 261 254 258 252 246 246 127 110 182 204 237 260 248 227 243 251 236 210 209 231 231 221 222 219 217 220 214 207 200 180 166 172 187 194 191 180 179 185 184 184 187 187 187 187 188 192 193 190 193 201 203 189 172 164 159 162 161 155 149 147 138 129 142 146 146 138 111 28 30 49 33 80 80 51 19
229 239 181 107 85 271 248 242 249 250 249 249 247 251 251 245 255 215 151 210 232 253 275 279 260 247 254 243 215 210 228 232 219 222 223 217 221 218 208 201 187 175 180 189 196 193 182 182 190 193 191 189 192 194 193 194 197 197 195 199 205 199 193 191 174 168 179 178 167 162 162 153 152 170 165 143 126 110 79 66 69 77 92 91 78 69
256 89 100 116 150 237 244 227 232 249 240 233 239 255 263 253 267 277 177 190 244 239 253 272 265 247 245 237 223 212 216 221 212 214 219 213 213 217 212 207 199 189 185 191 204 197 184 186 194 199 198 194 197 200 198 199 201 200 199 203 206 197 197 203 189 185 191 181 167 163 165 164 163 162 140 126 124 110 91 80 74 79 93 98 95 84
254 91 121 183 206 227 244 238 224 240 254 238 224 237 267 272 265 259 221 199 245 237 210 233 256 250 242 236 226 204 200 212 210 207 211 208 206 206 210 216 215 203 190 199 217 209 192 191 196 202 205 203 202 203 203 204 205 204 202 203 205 198 198 204 200 198 191 173 162 156 155 158 157 147 138 144 141 125 122 117 93 84 94 101 100 96
137 111 186 205 228 231 237 248 231 226 252 262 234 222 245 261 254 249 245 230 252 263 179 198 260 268 248 232 222 207 202 207 207 207 208 203 201 202 205 209 212 211 205 209 218 215 206 200 198 202 208 210 208 207 207 210 212 209 205 205 204 200 202 204 203 201 189 173 161 154 155 157 154 150 150 152 144 139 147 137 111 97 98 98 100 102
138 151 201 204 232 238 232 245 232 224 250 270 330 253 238 250 248 244 255 249 261 277 200 197 240 265 260 228 197 204 213 210 203 201 205 200 197 201 208 211 208 205 208 219 222 215 213 211 205 204 207 209 210 211 212 215 217 213 208 209 203 199 204 204 203 201 191 176 165 158 159 159 158 158 158 153 147 148 148 131 113 100 94 96 95 94
203 201 208 214 230 238 240 259 237 224 248 277 346 274 257 259 254 245 253 251 259 270 249 227 230 251 262 236 180 193 222 231 212 194 200 206 200 197 202 207 202 187 194 217 224 216 217 218 214 212 208 206 208 214 218 219 221 217 211 211 205 200 205 206 202 200 193 179 171 167 163 160 161 162 159 152 150 152 146 131 122 117 112 104 98 98
209 225 232 227 233 242 244 279 266 227 244 279 298 263 251 253 248 243 250 251 251 249 253 250 235 242 263 248 203 197 225 242 214 185 193 202 198 185 173 181 192 190 190 205 214 212 219 222 220 217 213 208 205 212 219 223 224 220 215 214 209 201 204 206 201 199 195 183 175 173 169 164 163 162 160 156 158 157 151 143 136 130 124 110 102 99
180 192 259 248 246 264 270 262 249 249 259 268 263 252 242 243 241 239 248 255 256 243 244 247 238 239 254 252 224 175 231 274 194 164 177 187 183 160 150 196 200 203 210 217 221 207 213 221 222 219 215 211 205 204 214 223 226 223 218 217 212 204 204 206 201 198 197 188 179 176 175 171 166 165 162 164 167 164 161 161 151 143 141 138 130 109
216 198 217 220 232 264 276 245 228 233 249 251 246 244 239 238 235 238 242 239 248 255 253 245 231 231 246 260 240 136 148 276 170 156 160 160 145 99 76 240 164 2 288 284 324 63 223 236 229 222 215 211 206 200 204 218 225 223 220 219 214 207 205 205 203 198 197 194 183 178 180 177 175 175 170 169 173 170 171 173 166 163 164 164 165 137
238 232 222 200 204 239 252 242 218 208 224 239 237 237 241 239 228 235 238 226 237 251 253 228 210 225 253 262 185 151 148 134 122 121 121 118 78 69 68 58 49 19 4 22 31 42 31 337 252 225 215 209 206 203 203 211 218 218 217 218 215 210 207 206 205 200 197 197 190 182 183 183 186 188 181 176 178 176 178 181 178 177 177 178 184 179
230 233 223 210 193 210 241 253 230 208 217 234 238 236 241 244 240 243 242 233 241 238 195 63 278 245 262 259 143 141 120 113 130 120 107 112 94 75 60 59 53 39 37 41 41 42 40 33 23 210 208 205 204 208 210 210 210 209 212 216 214 211 208 206 206 203 199 198 196 189 185 185 191 196 192 186 186 184 183 187 189 187 184 189 194 191
257 242 208 219 187 179 233 254 264 269 253 241 246 244 244 254 256 256 262 264 268 258 197 151 217 254 252 194 111 118 121 128 137 132 124 120 106 88 69 60 53 47 44 45 47 46 48 51 53 114 187 201 205 212 215 212 207 201 203 210 209 204 206 208 209 207 202 200 199 197 192 189 191 197 198 193 194 196 190 189 194 193 190 195 201 196
269 269 172 191 206 201 238 253 268 274 262 244 250 245 241 255 261 266 281 287 305 302 253 195 215 259 164 139 139 130 138 143 141 140 135 123 109 96 84 73 62 57 53 51 54 51 53 59 63 83 142 192 203 210 212 212 210 200 195 199 198 195 199 205 209 210 206 202 203 202 198 195 193 196 200 196 197 203 199 194 194 196 195 195 201 201
265 264 147 175 216 224 253 277 257 255 269 264 248 250 257 264 266 270 270 261 246 262 259 234 237 244 178 166 167 161 160 152 154 155 139 124 113 100 89 79 70 65 60 59 62 62 62 67 71 81 107 160 187 202 206 208 208 200 192 189 188 188 190 197 207 211 208 205 206 208 206 204 200 198 199 198 199 203 205 203 200 201 200 198 200 202
274 271 232 227 231 208 242 278 263 249 264 273 258 269 282 267 263 268 266 255 247 254 251 241 248 245 229 203 170 182 189 167 169 163 138 132 121 105 92 83 74 69 66 64 66 67 68 73 76 84 97 122 149 169 184 194 201 199 192 186 183 185 186 190 197 204 207 206 206 210 212 211 210 207 204 202 202 204 207 208 207 207 205 205 204 203
283 275 261 245 240 206 205 252 260 242 236 251 273 295 280 257 253 248 254 257 256 264 262 252 257 252 245 226 175 190 192 169 177 171 149 145 125 108 98 89 80 72 70 67 67 67 69 74 78 85 93 106 124 135 146 159 173 179 180 179 180 185 188 190 193 199 207 210 209 212 216 218 218 216 213 210 208 208 210 211 211 212 210 212 212 209
274 272 269 244 238 238 227 235 251 244 222 229 257 267 254 257 268 261 257 263 261 264 270 269 264 252 253 221 165 191 196 173 178 178 157 137 119 111 101 94 86 79 75 70 70 70 70 73 76 84 91 100 113 121 129 134 138 144 153 161 163 170 181 187 193 196 199 207 212 214 219 223 224 224 223 220 218 218 219 219 217 215 214 214 216 214
256 264 273 259 238 236 244 242 256 270 249 231 241 245 242 246 260 268 261 255 261 266 269 273 266 256 10 59 132 202 210 181 173 169 147 128 120 112 102 98 93 88 83 78 77 75 75 77 76 81 88 95 102 108 116 120 122 126 132 147 157 166 180 190 198 204 207 213 220 221 223 227 228 230 229 227 226 226 226 227 225 222 220 217 218 217
262 264 266 266 255 243 250 266 293 296 293 281 274 270 268 259 254 263 262 253 259 266 269 273 270 272 62 66 221 232 204 173 166 159 142 133 127 115 107 105 100 97 93 87 85 81 79 81 80 82 84 87 93 96 100 105 107 112 118 135 157 169 180 193 207 217 217 216 222 226 226 228 232 237 238 235 234 235 234 233 231 229 226 222 223 222
14 290 272 266 264 266 273 278 252 283 289 281 276 275 278 275 265 264 265 271 279 276 277 280 276 295 49 305 250 211 180 162 161 153 140 135 131 123 118 111 104 103 100 96 94 90 86 85 84 85 85 84 88 89 92 94 91 94 98 97 132 158 161 166 186 216 219 215 226 234 232 231 235 243 246 239 237 239 241 242 241 237 233 228 227 227
106 261 262 265 264 266 269 249 209 226 264 265 261 258 260 262 267 272 276 284 285 274 275 278 267 258 58 355 356 134 146 148 155 157 148 141 136 133 127 119 113 110 106 102 99 96 94 91 87 86 85 83 84 83 83 85 86 91 94 91 99 123 143 162 171 190 217 224 235 243 240 232 233 242 243 237 238 244 248 250 246 241 237 232 229 229
153 251 249 262 265 255 252 241 221 218 240 254 254 249 253 268 275 277 278 277 269 264 264 267 268 249 109 96 171 146 162 169 172 173 162 153 150 144 133 126 124 119 116 112 106 102 99 95 90 87 85 83 83 81 78 79 80 84 87 89 93 93 96 128 154 161 195 218 229 242 244 234 232 242 242 237 240 246 250 249 245 240 238 234 231 230
270 270 266 265 265 258 251 249 248 245 247 270 267 249 242 266 278 275 273 264 257 265 264 261 270 262 141 180 211 203 206 201 188 181 170 164 163 155 141 136 135 130 129 124 117 114 107 99 94 90 87 84 83 81 79 79 78 78 81 81 82 83 83 84 87 97 154 223 235 248 255 246 237 240 240 239 241 242 243 246 245 243 241 237 235 233
266 264 262 261 263 267 273 281 298 298 278 280 284 268 246 246 261 267 272 267 266 275 270 261 270 269 218 201 209 214 223 220 203 195 194 183 167 158 151 147 147 146 146 139 133 128 118 110 102 95 91 87 85 85 82 80 78 76 77 77 77 77 75 77 74 71 78 220 260 260 264 263 251 240 242 248 250 248 247 247 247 245 243 243 242 238
264 256 252 258 261 265 275 282 286 286 278 276 279 274 264 260 262 259 256 268 281 282 270 267 276 276 264 246 230 217 224 237 227 216 221 212 185 180 177 168 174 180 173 162 146 137 126 117 109 102 97 90 87 88 85 82 78 75 71 67 67 63 54 61 67 59 48 315 286 257 258 271 265 254 254 258 259 258 256 253 248 242 243 248 248 243
261 261 256 260 261 263 269 274 274 275 275 273 269 267 268 269 267 263 256 261 270 269 269 283 290 285 283 284 277 265 248 254 249 235 234 230 214 212 211 214 227 219 205 194 166 147 136 124 116 108 101 93 90 89 86 83 76 72 69 60 52 47 38 30 34 35 344 308 295 276 276 281 272 264 262 262 263 263 263 262 254 243 242 247 248 249
264 266 263 269 272 270 268 270 272 272 272 270 265 262 263 263 263 263 263 261 262 263 268 280 283 279 279 285 288 293 293 277 263 245 239 236 229 231 234 235 235 227 214 202 180 159 144 132 125 117 106 96 91 87 82 77 68 63 61 52 40 33 25 6 347 339 315 300 290 284 283 277 269 266 260 257 257 256 256 260 259 252 249 249 248 249
220 263 272 278 277 272 272 273 270 271 271 268 264 260 259 261 262 261 261 262 262 264 268 272 274 276 279 281 279 275 269 264 253 236 234 237 236 239 242 239 235 229 221 209 190 174 159 143 134 123 112 101 93 86 75 62 50 45 37 21 9 358 345 328 321 315 305 295 287 285 282 273 267 264 261 257 255 254 254 254 254 255 258 259 254 248
212 268 281 278 268 267 271 269 269 282 281 267 263 264 261 261 263 262 262 263 263 266 271 273 272 271 273 277 274 267 262 259 253 245 242 243 245 248 247 243 242 237 226 218 210 198 176 154 140 129 117 108 98 85 65 49 34 30 14 351 346 341 326 319 316 307 298 292 290 287 283 278 274 269 266 264 262 260 259 256 253 253 256 259 257 251
244 264 274 272 268 268 269 269 282 323 300 268 262 268 263 258 256 257 259 260 259 260 262 263 264 271 282 292 288 279 272 267 267 266 261 259 258 255 248 246 245 236 219 214 218 215 194 165 144 131 121 113 98 51 19 19 12 6 355 341 334 326 319 318 312 302 295 290 289 286 281 277 276 274 271 268 267 265 264 260 257 254 251 251 250 248
257 263 268 269 269 269 272 280 298 284 263 260 271 279 271 264 256 256 261 263 262 262 265 272 281 287 290 291 286 281 274 272 280 286 279 274 270 258 249 250 247 222 202 202 213 217 209 187 146 120 107 86 10 341 343 350 342 335 334 331 325 317 314 312 306 301 296 292 289 285 279 277 276 275 274 271 271 269 265 263 260 256 253 249 247 245
259 260 261 262 265 269 271 269 254 253 253 258 289 311 317 297 275 272 274 271 268 271 276 283 287 287 285 285 286 284 277 273 280 280 272 270 267 256 246 235 213 185 183 196 209 224 235 234 207 78 26 335 331 330 332 326 318 319 319 316 314 313 311 308 303 299 295 292 291 287 282 281 279 276 275 273 271 268 265 264 262 258 255 250 247 244
254 255 257 258 258 264 263 247 247 262 258 225 228 228 226 264 269 275 272 264 264 273 280 281 277 275 282 289 291 291 288 280 271 269 274 275 266 250 231 208 188 178 189 212 225 238 252 258 270 298 297 310 314 310 307 306 307 308 306 307 308 307 303 300 295 292 290 288 287 284 281 279 277 275 274 273 271 270 267 265 263 260 258 253 249 245
246 250 252 252 253 255 258 252 258 271 262 240 239 253 328 278 286 292 283 273 256 253 281 298 287 275 275 280 284 291 297 286 266 256 275 301 303 162 152 148 157 194 219 232 239 247 255 261 273 293 294 298 297 293 295 297 298 299 298 300 303 302 300 298 293 290 289 286 285 282 279 277 275 273 272 270 271 270 268 266 264 262 259 254 250 245
238 244 247 249 250 249 256 259 258 262 261 254 319 35 42 32 353 309 287 281 263 266 277 286 285 283 287 292 295 298 295 282 266 246 224 202 149 124 167 189 209 231 237 244 252 257 259 264 281 293 291 288 287 287 291 291 292 294 293 295 299 299 298 296 293 291 290 288 286 284 281 279 276 273 272 270 270 270 268 267 264 260 259 255 250 247
242 240 243 247 248 244 250 256 254 257 268 31 75 60 52 49 25 312 269 259 46 17 340 312 295 294 293 293 299 302 292 278 280 339 351 1 152 181 249 246 244 246 249 256 262 264 268 281 294 292 285 283 282 283 286 289 291 290 287 290 295 297 297 295 294 294 292 289 289 286 284 281 278 275 273 271 270 270 269 267 263 260 258 251 240 232
245 240 238 242 247 244 244 250 253 257 285 51 78 73 40 33 9 288 263 251 64 31 9 359 335 321 308 295 292 289 287 293 325 348 343 336 288 269 270 259 258 262 263 264 267 272 281 291 295 290 283 282 282 282 285 287 287 284 285 289 292 292 293 293 293 292 291 289 288 287 285 283 281 278 276 274 273 272 269 266 264 260 249 238 230 224
242 237 240 244 246 244 245 251 257 254 56 56 37 9 12 337 279 265 276 9 44 308 324 340 325 322 319 306 297 285 286 311 333 313 299 289 275 272 272 266 267 271 273 274 277 284 289 291 289 285 284 285 283 282 282 283 282 281 281 284 286 286 289 291 290 290 288 287 287 286 285 283 281 279 276 274 272 271 269 266 262 252 232 225 233 234
247 240 242 244 248 251 250 254 258 257 42 32 350 332 331 276 260 285 325 332 302 295 302 298 293 298 300 297 298 296 291 296 300 293 288 284 277 273 272 271 272 274 278 282 284 286 288 287 284 283 283 283 282 281 280 280 279 279 279 280 283 285 287 287 286 285 285 285 285 284 283 281 281 279 276 274 271 270 269 264 254 238 223 228 243 247
268 263 250 243 252 260 253 253 260 258 35 19 350 338 313 283 305 332 326 306 297 298 296 293 291 291 289 287 291 293 292 292 291 288 288 287 285 280 275 275 277 280 282 284 285 285 285 283 281 281 281 281 281 279 278 279 278 278 279 280 281 284 285 284 283 282 282 283 282 282 282 282 283 280 277 276 273 269 265 254 238 227 228 240 248 247
266 262 267 269 277 269 255 256 265 208 59 345 330 310 299 299 307 313 309 303 301 297 292 292 293 292 291 290 289 288 287 287 285 284 282 282 283 283 281 280 281 282 284 286 286 287 285 282 280 279 279 279 279 278 278 279 279 279 279 279 281 283 283 281 281 281 281 280 280 282 284 284 284 281 278 275 271 264 254 237 223 226 239 249 246 235
253 271 285 288 290 283 276 280 286 275 279 295 300 295 294 292 291 295 295 292 292 294 293 292 290 289 290 291 290 290 287 283 282 281 280 279 279 281 282 281 281 282 284 285 285 283 282 281 279 278 278 277 278 279 279 278 278 278 277 278 279 279 279 280 280 279 279 280 281 283 284 284 283 281 276 270 262 252 238 226 225 236 245 240 226 210
300 301 286 277 286 289 281 278 282 286 291 298 296 295 296 293 290 291 289 285 287 290 290 289 289 289 289 287 287 286 284 283 283 282 282 281 279 278 279 279 280 281 282 283 283 282 281 280 279 278 277 277 278 279 278 277 275 276 276 277 276 275 276 278 277 278 280 282 283 284 284 284 282 277 267 257 249 237 226 228 238 243 231 210 195 186
324 335 297 274 280 288 283 283 291 294 296 297 294 293 293 292 292 294 293 293 297 297 293 291 291 290 288 286 284 283 282 282 281 280 280 280 279 278 278 279 278 278 279 280 282 282 281 280 279 277 277 277 277 277 277 276 274 275 275 275 274 273 274 274 275 279 282 282 282 283 283 280 274 264 252 245 240 229 222 231 235 219 189 176 170 163
2 21 301 271 270 277 282 288 294 295 292 291 290 290 293 295 298 300 297 295 295 293 291 289 287 286 286 285 284 283 283 282 281 280 281 280 279 278 277 276 276 276 277 277 279 281 282 280 279 278 278 277 276 276 275 275 274 275 276 275 273 273 273 274 276 278 278 276 276 276 273 267 259 251 245 245 237 220 202 201 195 174 160 159 158 153
298 290 286 288 283 276 277 286 298 302 296 288 287 291 297 301 301 298 296 293 291 290 289 287 285 284 284 283 283 283 281 279 279 279 278 278 277 276 276 276 276 276 276 277 278 279 280 280 280 279 278 277 276 275 274 274 274 275 275 274 272 273 276 278 278 277 274 271 268 265 261 258 254 244 230 217 197 174 160 158 158 154 151 154 156 152
285 280 288 292 282 278 290 305 315 311 296 292 297 300 302 303 301 298 297 295 292 290 289 287 286 285 283 282 281 280 279 279 278 277 277 276 275 276 276 277 276 276 277 279 279 279 279 279 279 279 278 278 277 275 274 273 274 275 272 269 271 276 279 279 276 273 268 261 258 258 256 250 237 210 185 168 156 148 143 141 143 144 145 149 155 156
292 300 306 297 290 295 304 310 312 307 297 297 302 303 304 304 302 299 297 296 295 294 295 295 293 292 289 286 284 281 280 281 280 279 277 275 274 274 275 275 275 277 277 278 278 278 279 280 280 280 280 279 277 275 273 273 273 270 265 266 273 280 280 275 269 263 256 246 241 236 218 184 164 157 150 145 143 143 140 137 137 139 141 143 145 144